Location: Newark
(44.6768°N, 22.5302°E)
Time: 21:38:57
(UTC+00:00)

UKube-1 - Pass Details

Date: 08 July 2022
Orbit: 608 x 615 km, 98.4° (Epoch: 11 August)

Event Time Altitude Azimuth Distance (km) Brightness Sun altitude
Rises 20:38:58 0° 13° (NNE) 2,891 ? -17.9°
Reaches altitude 10° 20:41:09 10° 12° (NNE) 1,980 ? -18.1°
Maximum altitude 20:45:27 85° 287° (WNW) 621 ? -18.4°
Enters shadow 20:47:31 30° 199° (SSW) 1,089 ? -18.6°
